Mattoon, IL

3:10 AM CST on December 12, 2019 (GMT -0600)
Coles County Memorial

Weather History for KMTO - May, 2019

Change the Weather History Date:

Saturday, May 18, 2019

  Actual Average Record
Temperature  
Mean Temperature 76 °F 64 °F  
Max Temperature 85 °F 74 °F 90 °F (1962)
Min Temperature 66 °F 54 °F 33 °F (2002)
Degree Days  
Heating Degree Days 0 4  
Month to date heating degree days 112 94  
Since 1 July heating degree days 5499 5356  
Cooling Degree Days 11 3  
Month to date cooling degree days 31 30  
Year to date cooling degree days 36 44  
Growing Degree Days 25 (Base 50)    
Moisture  
Dew Point 58 °F    
Average Humidity 58    
Maximum Humidity 81    
Minimum Humidity 34    
Precipitation  
Precipitation 0.00 in 0.15 in 1.85 in (1981)
Month to date precipitation 0.81 2.73  
Year to date precipitation 9.83 12.71  
Sea Level Pressure  
Sea Level Pressure 29.80 in    
Wind  
Wind Speed 12 mph (South)    
Max Wind Speed 24 mph    
Max Gust Speed 35 mph    
Visibility 10 miles    
Events      
T = Trace of Precipitation, MM = Missing Value Source: NWS Daily Summary

Daily Weather History Graph

Daily Weather History Graph

Search for Another Location

Airport or City:

Astronomy

May. 18, 2019 Rise Set
Actual Time 5:36 AM CDT 8:02 PM CDT
Civil Twilight 5:06 AM CDT 8:33 PM CDT
Nautical Twilight 4:28 AM CDT 9:11 PM CDT
Astronomical Twilight 3:46 AM CDT 9:53 PM CDT
Moon 7:58 PM CDT (5/18) 5:42 AM CDT (5/18)
Length of Visible Light 15h 27m
Length of Day
14h 26m
Full, 100% of the Moon is Illuminated
May 18
Full
May 18
Full
May 26
Last Quarter
Jun 3
New
Jun 10
First Quarter

Hourly Weather History & Observations

Time (CDT) Temp. Heat Index Dew Point Humidity Pressure Visibility Wind Dir Wind Speed Gust Speed Precip Events Conditions
12:53 AM 69.1 °F - 60.1 °F 73% 29.85 in 10.0 mi South 5.8 mph - N/A   Clear
1:53 AM 68.0 °F - 60.1 °F 76% 29.84 in 10.0 mi South 5.8 mph - N/A   Clear
2:53 AM 66.9 °F - 61.0 °F 81% 29.84 in 10.0 mi South 6.9 mph - N/A   Clear
3:53 AM 66.9 °F - 61.0 °F 81% 29.84 in 10.0 mi South 5.8 mph - N/A   Clear
4:53 AM 66.0 °F - 61.0 °F 84% 29.84 in 10.0 mi South 5.8 mph - N/A   Clear
5:53 AM 66.0 °F - 61.0 °F 84% 29.85 in 10.0 mi South 6.9 mph - N/A   Clear
6:53 AM 69.1 °F - 61.0 °F 75% 29.86 in 10.0 mi South 8.1 mph - N/A   Clear
7:53 AM 73.0 °F - 61.0 °F 66% 29.87 in 10.0 mi SSW 13.8 mph 24.2 mph N/A   Clear
8:53 AM 75.9 °F - 62.1 °F 62% 29.86 in 10.0 mi SSW 15.0 mph 27.6 mph N/A   Clear
9:53 AM 79.0 °F - 61.0 °F 54% 29.83 in 10.0 mi SSW 18.4 mph 32.2 mph N/A   Clear
10:53 AM 81.0 °F 81.6 °F 60.1 °F 49% 29.82 in 10.0 mi SSW 17.3 mph 31.1 mph N/A   Clear
11:53 AM 82.0 °F 82.1 °F 59.0 °F 45% 29.82 in 10.0 mi SSW 18.4 mph 31.1 mph N/A   Clear
12:53 PM 84.0 °F 83.3 °F 57.0 °F 40% 29.80 in 10.0 mi South 18.4 mph 29.9 mph N/A   Clear
1:53 PM 84.0 °F 82.6 °F 54.0 °F 35% 29.79 in 10.0 mi SSW 18.4 mph 34.5 mph N/A   Clear
2:53 PM 84.9 °F 83.2 °F 53.1 °F 33% 29.81 in 10.0 mi SW 15.0 mph 28.8 mph N/A   Clear
3:53 PM 84.0 °F 82.9 °F 55.0 °F 37% 29.78 in 10.0 mi SSW 13.8 mph 25.3 mph N/A   Clear
4:53 PM 84.0 °F 82.6 °F 54.0 °F 35% 29.77 in 10.0 mi South 15.0 mph 26.5 mph N/A   Clear
5:53 PM 82.9 °F 81.9 °F 54.0 °F 37% 29.76 in 10.0 mi South 8.1 mph 19.6 mph N/A   Clear
6:53 PM 80.1 °F 80.1 °F 55.0 °F 42% 29.75 in 10.0 mi South 9.2 mph - N/A   Clear
7:53 PM 75.9 °F - 57.0 °F 52% 29.73 in 10.0 mi SSE 5.8 mph - N/A   Clear
8:53 PM 75.0 °F - 57.9 °F 55% 29.73 in 10.0 mi SSE 8.1 mph - N/A   Clear
9:53 PM 73.9 °F - 57.9 °F 57% 29.73 in 10.0 mi SSE 9.2 mph - N/A   Clear
10:53 PM 73.0 °F - 60.1 °F 64% 29.72 in 10.0 mi SSE 10.4 mph - N/A   Clear
11:53 PM 75.0 °F - 59.0 °F 57% 29.70 in 10.0 mi South 15.0 mph 26.5 mph N/A   Partly Cloudy